Location: Chiroubles
(46.1812°N, 4.6660°E)
Time: 05:46:26
(UTC+00:00)

Transit 4A - Pass Details

Date: 02 December 2020
Orbit: 864 x 980 km, 66.8° (Epoch: 25 January)

Event Time Altitude Azimuth Distance (km) Brightness Sun altitude
Rises 06:30:58 0° 196° (SSW) 3,615 11.1 -6.0°
Reaches altitude 10° 06:33:31 10° 193° (SSW) 2,687 10.5 -5.6°
Maximum altitude 06:39:40 57° 116° (ESE) 1,134 8.9 -4.6°
Drops below altitude 10° 06:45:56 10° 40° (NE) 2,740 10.5 -3.7°
Sets 06:48:33 0° 36° (NE) 3,692 11.1 -3.3°
